Flag for Spain Weather past 2 weeks in Santa Cruz de Tenerife, Canary Islands, Spain

Now
68 °F

Scattered clouds.


Feels Like: 68 °F
Forecast: 70 / 75 °F
Wind: 21 mph from Northwest

Location: Tenerife / Los Rodeos

Current Time: Jul 30, 2014 at 12:52:16 PM

Latest Report: Jul 30, 2014 at 12:30 PM


Visibility: N/A

Pressure: 30.07 "Hg

Humidity: 73%

Dew point: 59 °F

Location of Santa Cruz de TenerifeLocation

Historic Weather in Santa Cruz de Tenerife — Graph

°F

Santa Cruz de Tenerife temperature yesterday

Maximum temperature yesterday: 72 °F (at 2:00 PM)
Minimum temperature yesterday: 63 °F (at 6:00 AM)
Average temperature yesterday: 67 °F

Past Weeks' High & Low Weather Summary

 TemperatureHumidityPressure
High73 °F (Jul 19, 4:00 PM)100% (Jul 22, 7:00 AM)30.21 "Hg (Jul 22, 7:00 AM)
Low59 °F (Jul 16, 7:00 AM)57% (Jul 27, 2:00 PM)30.01 "Hg (Jul 30, 6:00 AM)
Average66 °F82%30.14 "Hg
* Reported Jul 15 11:00 AM — Jul 30 11:30 AM, Santa Cruz de Tenerife, Weather by CustomWeather, © 2014

Note: Actual official high and low records may vary slightly from our data, if they occured in-between our weather recording intervals... More about our weather records

Advertising

Santa Cruz de Tenerife weather history for previous 24 hours

 ConditionsComfort  
Time TempWeatherWind HumidityBarometerVisibility
11:30 AM
Jul 30
68 °FBroken clouds.20 mph78%30.07 "HgN/A
11:00 AM66 °FDrizzle. Broken clouds.18 mph83%30.09 "HgN/A
10:30 AM66 °FBroken clouds.17 mph88%30.07 "HgN/A
10:00 AM66 °FBroken clouds.17 mph83%30.07 "HgN/A
9:30 AM66 °FPartly sunny.17 mph78%30.07 "HgN/A
9:00 AM64 °FScattered clouds.18 mph83%30.07 "HgN/A
8:30 AM64 °FScattered clouds.21 mph83%30.04 "HgN/A
8:00 AM63 °FPassing clouds.21 mph83%30.04 "HgN/A
7:30 AM63 °FPassing clouds.22 mph88%30.04 "HgN/A
7:00 AM63 °FPassing clouds.22 mph88%30.04 "HgN/A
6:30 AM63 °FPassing clouds.21 mph88%30.04 "HgN/A
6:00 AM63 °FPassing clouds.21 mph94%30.01 "HgN/A
11:00 PM
Jul 29
64 °FFog.20 mph88%30.09 "HgN/A
10:30 PM64 °FPassing clouds.20 mph94%30.07 "HgN/A
10:00 PM64 °FPassing clouds.22 mph88%30.07 "HgN/A
9:30 PM64 °FFog.22 mph94%30.07 "HgN/A
9:00 PM64 °FPartly sunny.22 mph94%30.07 "HgN/A
8:30 PM66 °FPartly sunny.23 mph83%30.07 "HgN/A
8:00 PM66 °FPartly sunny.24 mph83%30.07 "HgN/A
7:30 PM68 °FPartly sunny.24 mph78%30.07 "HgN/A
7:00 PM68 °FPartly sunny.24 mph78%30.04 "HgN/A
6:30 PM70 °FScattered clouds.24 mph69%30.07 "HgN/A
6:00 PM70 °FScattered clouds.22 mph73%30.07 "HgN/A
5:30 PM68 °FPartly sunny.24 mph73%30.07 "HgN/A
5:00 PM72 °FScattered clouds.23 mph69%30.07 "HgN/A
4:30 PM72 °FScattered clouds.24 mph65%30.07 "HgN/A
4:00 PM72 °FPassing clouds.25 mph65%30.07 "HgN/A
3:30 PM72 °FPassing clouds.23 mph65%30.09 "HgN/A
3:00 PM72 °FPassing clouds.20 mph65%30.09 "HgN/A
2:30 PM72 °FPassing clouds.18 mph61%30.09 "HgN/A
2:00 PM72 °FScattered clouds.20 mph61%30.09 "HgN/A
1:30 PM70 °FScattered clouds.22 mph64%30.12 "HgN/A
1:00 PM70 °FScattered clouds.23 mph64%30.12 "HgN/A
12:30 PM70 °FPartly sunny.20 mph69%30.12 "HgN/A
12:00 PM70 °FPartly sunny.20 mph64%30.12 "HgN/A
Weather by CustomWeather, © 2014

See weather overviewHow to use our weather pages